Tallahassee, FL

8:45 PM EDT on May 25, 2017 (GMT -0400)
Tallahassee Regional

Weather History for KTLH - July, 2013

Change the Weather History Date:

Saturday, July 6, 2013

  Actual Average Record
Temperature  
Mean Temperature 80 °F 82 °F  
Max Temperature 86 °F 92 °F 101 °F (1931)
Min Temperature 73 °F 72 °F 62 °F (1947)
Degree Days  
Heating Degree Days 0    
Month to date heating degree days 0  
Since 1 June heating degree days 0  
Since 1 July heating degree days 0  
Cooling Degree Days 15    
Month to date cooling degree days 83  
Year to date cooling degree days 1065  
Since 1 June cooling degree days 603  
Growing Degree Days 30 (Base 50)    
Moisture  
Dew Point 72 °F    
Average Humidity 79    
Maximum Humidity 93    
Minimum Humidity 65    
Precipitation  
Precipitation T in 0.24 in 3.84 in (1991)
Month to date precipitation 5.04 1.40  
Year to date precipitation 34.75 30.79  
Sea Level Pressure  
Sea Level Pressure 30.09 in    
Wind  
Wind Speed 7 mph (SE)    
Max Wind Speed 24 mph    
Max Gust Speed 29 mph    
Visibility 10 miles    
Events Rain    
T = Trace of Precipitation, MM = Missing Value Source: NWS Daily Summary

Daily Weather History Graph

Daily Weather History Graph

Search for Another Location

Airport or City:

Trip Planner

Search our weather history database for the weather conditions in past years. The results will help you decide how hot, cold, wet, or windy it might be!

Date:

Astronomy

Jul. 06, 2013 Rise Set
Actual Time 6:41 AM EDT 8:43 PM EDT
Civil Twilight 6:13 AM EDT 9:10 PM EDT
Nautical Twilight 5:40 AM EDT 9:43 PM EDT
Astronomical Twilight 5:05 AM EDT 10:19 PM EDT
Moon 5:22 AM EDT (7/6) 7:27 PM EDT (7/6)
Length of Visible Light 14h 56m
Length of Day
14h 01m
Waning Crescent, 2% of the Moon is Illuminated
Jul 6
Waning Crescent
Jul 8
New
Jul 15
First Quarter
Jul 22
Full
Jul 29
Last Quarter

Hourly Weather History & Observations

Time (EDT) Temp. Heat Index Dew Point Humidity Pressure Visibility Wind Dir Wind Speed Gust Speed Precip Events Conditions
12:53 AM 73.9 °F - 71.1 °F 91% 30.11 in 10.0 mi ESE 6.9 mph - N/A   Mostly Cloudy
1:40 AM 73.4 °F - 71.6 °F 94% 30.10 in 10.0 mi East 8.1 mph - N/A   Partly Cloudy
1:53 AM 73.9 °F - 71.1 °F 91% 30.09 in 10.0 mi East 8.1 mph - N/A   Scattered Clouds
2:53 AM 73.9 °F - 71.1 °F 91% 30.07 in 10.0 mi East 5.8 mph - N/A   Clear
3:11 AM 73.4 °F - 71.6 °F 94% 30.07 in 10.0 mi ESE 8.1 mph - N/A   Partly Cloudy
3:53 AM 73.9 °F - 71.1 °F 91% 30.07 in 10.0 mi ESE 9.2 mph - N/A   Mostly Cloudy
4:53 AM 73.0 °F - 71.1 °F 93% 30.06 in 10.0 mi East 5.8 mph - N/A   Partly Cloudy
5:53 AM 73.9 °F - 70.0 °F 87% 30.07 in 10.0 mi East 5.8 mph - N/A   Scattered Clouds
6:53 AM 73.0 °F - 70.0 °F 90% 30.07 in 10.0 mi ESE 5.8 mph - N/A   Scattered Clouds
7:37 AM 75.2 °F - 71.6 °F 89% 30.08 in 10.0 mi ESE 8.1 mph - N/A   Scattered Clouds
7:53 AM 75.0 °F - 71.1 °F 87% 30.08 in 10.0 mi East 10.4 mph 17.3 mph N/A   Scattered Clouds
8:33 AM 75.2 °F - 71.6 °F 89% 30.10 in 10.0 mi ESE 9.2 mph - N/A   Overcast
8:53 AM 77.0 °F - 72.0 °F 84% 30.09 in 10.0 mi East 11.5 mph - N/A   Overcast
9:53 AM 79.0 °F - 73.0 °F 82% 30.10 in 10.0 mi ESE 8.1 mph - N/A   Mostly Cloudy
10:53 AM 82.0 °F 87.4 °F 73.0 °F 74% 30.10 in 10.0 mi ESE 11.5 mph - N/A   Overcast
11:00 AM 84.2 °F 90.9 °F 73.4 °F 70% 30.10 in 10.0 mi ESE 11.5 mph - N/A   Overcast
11:53 AM 84.9 °F 90.7 °F 72.0 °F 65% 30.09 in 10.0 mi SE 11.5 mph - N/A   Mostly Cloudy
12:18 PM 84.2 °F 89.6 °F 71.6 °F 66% 30.09 in 10.0 mi SSE 18.4 mph 24.2 mph N/A   Mostly Cloudy
12:53 PM 82.9 °F 88.8 °F 73.0 °F 72% 30.12 in 10.0 mi SSE 12.7 mph - N/A   Mostly Cloudy
1:06 PM 77.0 °F - 69.8 °F 78% 30.12 in 10.0 mi SW 15.0 mph 25.3 mph N/A   Mostly Cloudy
1:53 PM 75.9 °F - 71.1 °F 85% 30.11 in 10.0 mi SSW 8.1 mph - 0.00 in   Mostly Cloudy
2:53 PM 77.0 °F - 72.0 °F 84% 30.10 in 10.0 mi SW 4.6 mph - N/A   Mostly Cloudy
3:53 PM 78.1 °F - 72.0 °F 81% 30.10 in 10.0 mi WSW 10.4 mph - N/A   Overcast
4:21 PM 78.8 °F - 71.6 °F 78% 30.10 in 10.0 mi SW 8.1 mph - 0.00 in Rain Light Rain
4:53 PM 77.0 °F - 72.0 °F 84% 30.09 in 8.0 mi SW 6.9 mph - 0.00 in Rain Light Rain
5:15 PM 78.8 °F - 71.6 °F 78% 30.09 in 10.0 mi SSW 5.8 mph - 0.00 in   Scattered Clouds
5:53 PM 80.1 °F 83.6 °F 71.1 °F 74% 30.08 in 10.0 mi SW 6.9 mph - 0.00 in   Scattered Clouds
6:31 PM 80.6 °F 84.6 °F 71.6 °F 74% 30.07 in 10.0 mi SW 8.1 mph - N/A   Mostly Cloudy
6:53 PM 80.1 °F 83.8 °F 72.0 °F 76% 30.07 in 10.0 mi SW 4.6 mph - N/A   Scattered Clouds
7:53 PM 80.1 °F 83.6 °F 71.1 °F 74% 30.06 in 10.0 mi West 3.5 mph - N/A   Scattered Clouds
8:53 PM 78.1 °F - 72.0 °F 81% 30.08 in 10.0 mi Calm Calm - N/A   Scattered Clouds
9:53 PM 75.9 °F - 72.0 °F 87% 30.10 in 10.0 mi SE 3.5 mph - N/A   Clear
10:53 PM 75.0 °F - 71.1 °F 87% 30.11 in 10.0 mi Calm Calm - N/A   Clear
11:53 PM 75.0 °F - 72.0 °F 90% 30.11 in 10.0 mi East 5.8 mph - N/A   Clear